Location: Sungai Kamana Besar
(2.6333°N, 113.4333°E)
Time: 04:26:03
(UTC+00:00)

ARIANE 5 DEB (SYLDA) - Pass Details

Date: 29 May 2022
Orbit: 321 x 19839 km, 6.0° (Epoch: 23 June)

Event Time Altitude Azimuth Distance (km) Brightness Sun altitude
Exits shadow 20:18:01 23° 140° (SE) 1,371 4.4 -27.8°
Drops below altitude 10° 20:21:48 10° 111° (ESE) 3,047 6.6 -27.0°
Sets 20:27:50 0° 102° (ESE) 5,799 8.3 -25.6°
